This demonstration page uses our WeatherBlox Daily Observations layout. Learn more.

Left ArrowRight Arrow

41.55636, -103.73856

Hourly Observations for November 4, 2021

Temp ( °F °C ) Dew Point ( °F °C ) Humidity (%) Winds ( mph kmh ) Pressure ( in mb ) Visibility ( mi km ) Precip ( " mm )
12:58 am 00:58 Clear 39 3.9 31 -0.5 73 73 WSW 5 7 30.19 1022 10 16 0.00 0.00
1:58 am 01:58 Clear 39 4 31 -0.8 71 71 WSW 5 7 30.16 1022 10 16 0.00 0.00
2:58 am 02:58 Clear 38 3.4 30 -1 73 73 Calm 30.16 1021 10 16 0.00 0.00
3:58 am 03:58 Clear 36 2.2 29 -1.8 75 75 W 5 7 30.14 1021 10 16 0.00 0.00
4:58 am 04:58 Clear 37 2.7 29 -1.5 74 74 Calm 30.14 1021 10 16 0.00 0.00
5:58 am 05:58 Clear 37 2.8 29 -1.7 73 73 SW 6 9 30.16 1021 10 16 0.00 0.00
6:58 am 06:58 Clear 36 2.1 29 -1.7 76 76 SSW 9 15 30.18 1022 10 16 0.00 0.00
7:58 am 07:58 Sunny 38 3.1 29 -1.5 72 72 SSW 12 19 30.17 1022 10 16 0.00 0.00
8:58 am 08:58 Sunny 41 5 31 -0.5 68 68 WSW 6 9 30.18 1022 10 16 0.00 0.00
9:58 am 09:58 Sunny 51 10.5 32 0 49 49 W 7 11 30.14 1021 10 16 0.00 0.00
10:58 am 10:58 Sunny 57 13.8 30 -1 36 36 W 13 20 30.08 1019 10 16 0.00 0.00
11:58 am 11:58 Sunny 60 15.7 30 -1 32 32 WNW 17 28 30.06 1018 10 16 0.00 0.00
12:58 pm 12:58 Sunny 62 16.4 29 -1.5 30 30 WNW 13 20 30.03 1017 10 16 0.00 0.00
1:58 pm 13:58 Sunny 64 17.9 30 -1 28 28 W 10 17 29.98 1015 10 16 0.00 0.00
2:58 pm 14:58 Sunny 66 18.7 29 -1.4 26 26 W 10 17 29.96 1015 10 16 0.00 0.00
3:58 pm 15:58 Sunny 66 18.7 30 -1.2 26 26 NW 5 7 29.95 1014 10 16 0.00 0.00
4:58 pm 16:58 Sunny 65 18.4 31 -0.8 27 27 Calm 29.94 1014 10 16 0.00 0.00
5:58 pm 17:58 Clear 56 13.3 33 0.3 41 41 SSW 13 20 29.95 1014 10 16 0.00 0.00
6:58 pm 18:58 Clear 53 11.6 32 0 45 45 SSW 17 28 29.96 1015 10 16 0.00 0.00
7:58 pm 19:58 Clear 50 9.8 32 -0.1 50 50 SSW 17 28 29.95 1014 10 16 0.00 0.00
8:58 pm 20:58 Clear 49 9.6 32 -0.1 51 51 SSW 20 31 29.93 1014 10 16 0.00 0.00
9:58 pm 21:58 Mostly Clear 51 10.3 32 -0.2 48 48 SSW 20 31 29.91 1013 10 16 0.00 0.00
10:58 pm 22:58 Mostly Cloudy 51 10.5 30 -1.2 44 44 SSW 17 28 29.87 1011 10 16 0.00 0.00
11:58 pm 23:58 Clear 51 10.3 28 -2.2 42 42 SSW 18 30 29.85 1011 10 16 0.00 0.00

Powered by AerisWeather